Waarnemingen

Advertentie
Mijn weer
St-Etienne Boutheon, Frankrijk (7475): temperatuur & dauwpunt: 15.03.2019 13:00:00 - 21.03.2019 13:00:00 (CET)St-Etienne Boutheon, Frankrijk (7475): temperatuur 5cm: 15.03.2019 13:00:00 - 21.03.2019 13:00:00 (CET)St-Etienne Boutheon, Frankrijk (7475): temperatuur -20cm & temperatuur -100cm: 15.03.2019 13:00:00 - 21.03.2019 13:00:00 (CET)St-Etienne Boutheon, Frankrijk (7475): windsnelheid & windstoten: 15.03.2019 13:00:00 - 21.03.2019 13:00:00 (CET)St-Etienne Boutheon, Frankrijk (7475): windrichting: 15.03.2019 13:00:00 - 21.03.2019 13:00:00 (CET)St-Etienne Boutheon, Frankrijk (7475): luchtdruk: 15.03.2019 13:00:00 - 21.03.2019 13:00:00 (CET)St-Etienne Boutheon, Frankrijk (7475): zicht: 15.03.2019 13:00:00 - 21.03.2019 13:00:00 (CET)St-Etienne Boutheon, Frankrijk (7475): Zonneschijnduur: 15.03.2019 13:00:00 - 21.03.2019 13:00:00 (CET)St-Etienne Boutheon, Frankrijk (7475): neerslag: 15.03.2019 13:00:00 - 21.03.2019 13:00:00 (CET)
Datum & Tijd tt [°C] td [°C] tt 5cm [°C] tt -20cm [°C] tt -100cm [°C] ff [km/u] ff [kn] fx [km/u] fx [kn] dd ppp [hPa] vv [km] sd [min] rr [mm]
21.03.2019 13:00:00 10,7 -1,7 17,4 6,3 8,7 7 4 17 9 NW 1030,1 20 60 0,0
21.03.2019 12:00:00 9,2 -1,0 15,5 5,8 8,7 6 3 20 11 NNO 1030,7 33 60 0,0
21.03.2019 11:00:00 8,1 -0,4 13,2 5,6 8,7 4 2 20 11 WZW 1031,3 19 60 0,0
21.03.2019 10:00:00 6,2 -1,7 11,7 5,5 8,7 4 2 16 9 NNW 1031,9 42 60 0,0
21.03.2019 09:00:00 5,6 -0,9 6,5 5,6 8,7 3 1 10 6 ZW 1032,0 28 60 0,0
21.03.2019 08:00:00 0,9 -2,0 -7,9 5,9 8,7 2 1 8 4 ZZO 1032,9 16 54 0,0
21.03.2019 07:00:00 -3,6 -5,8 -8,3 6,1 8,7 2 1 10 5 Z 1033,3 14 0 0,0
21.03.2019 06:00:00 -2,9 -4,3 -9,1 6,3 8,7 6 3 9 5 Z 1032,8 16 0 0,0
21.03.2019 05:00:00 -2,9 -4,2 -8,2 6,6 8,7 6 4 10 5 Z 1032,6 18 0 0,0
21.03.2019 04:00:00 -1,7 -4,2 -8,0 6,8 8,7 4 2 9 5 ZZO 1032,2 22 0 0,0
21.03.2019 03:00:00 -2,6 -5,1 -7,4 7,1 8,7 3 2 10 6 ZZO 1032,8 20 0 0,0
21.03.2019 02:00:00 -2,1 -5,3 -7,8 7,4 8,7 3 1 7 4 ZZO 1033,3 20 0 0,0
21.03.2019 01:00:00 -0,4 -3,4 -7,0 7,7 8,8 4 2 10 5 ZZO 1032,8 26 0 0,0
21.03.2019 00:00:00 -0,5 -3,2 -6,2 7,9 8,8 3 2 8 4 ZO 1032,7 31 0 0,0
20.03.2019 23:00:00 0,4 -3,2 -5,8 8,2 8,8 8 4 9 5 Z 1032,6 38 0 0,0
20.03.2019 22:00:00 1,7 -4,4 -3,8 8,5 8,8 4 2 11 6 ZW 1032,6 35 0 0,0
20.03.2019 21:00:00 4,4 -4,4 -1,2 8,6 8,8 5 3 10 5 N 1032,3 55 0 0,0
20.03.2019 20:00:00 6,7 -3,8 2,9 8,7 8,8 7 4 15 8 N 1031,4 59 0 0,0
20.03.2019 19:00:00 8,9 -3,7 6,5 8,6 8,8 9 5 36 19 N 1030,6 60 23 0,0
20.03.2019 18:00:00 11,2 -4,1 12,6 8,4 8,8 19 10 41 22 N 1029,6 54 60 0,0
20.03.2019 17:00:00 12,3 -5,3 15,8 8,0 8,8 23 12 39 21 N 1028,9 49 60 0,0
20.03.2019 16:00:00 13,0 -6,6 16,8 7,5 8,8 20 11 37 20 NO 1029,0 49 60 0,0
20.03.2019 15:00:00 13,0 -5,6 16,7 6,9 8,8 16 9 45 24 NNO 1029,3 60 60 0,0
20.03.2019 14:00:00 12,0 0,1 16,4 6,4 8,8 22 12 41 22 NNW 1030,0 50 60 0,0
20.03.2019 13:00:00 10,9 -0,3 15,6 5,9 8,8 21 11 40 21 NNW 1030,8 20 60 0,0
20.03.2019 12:00:00 9,9 0,2 14,3 5,5 8,8 21 11 37 20 NNW 1031,3 50 60 0,0
20.03.2019 11:00:00 8,0 -0,8 12,4 5,3 8,8 16 9 29 16 NNW 1031,8 48 60 0,0
20.03.2019 10:00:00 5,8 -0,3 9,4 5,3 8,8 16 9 23 12 N 1032,3 20 60 0,0
20.03.2019 09:00:00 3,2 -1,0 6,1 5,4 8,8 8 5 16 9 N 1032,8 27 60 0,0
20.03.2019 08:00:00 1,8 -1,8 -5,8 5,7 8,8 10 5 22 12 N 1032,7 27 52 0,0
20.03.2019 07:00:00 -2,9 -4,2 -9,0 5,9 8,8 3 1 8 4 N 1033,3 20 0 0,0
20.03.2019 06:00:00 -3,9 -4,7 -8,5 6,1 8,8 2 1 6 4 ZO 1033,0 17 0 0,0
20.03.2019 05:00:00 -3,0 -4,0 -8,2 6,3 8,8 4 2 6 4 ZZO 1032,7 19 0 0,0
20.03.2019 04:00:00 -3,6 -6,1 -7,3 6,6 8,9 0 0 7 4 N 1032,8 25 0 0,0
20.03.2019 03:00:00 -3,3 -5,3 -7,0 6,8 8,9 3 2 10 5 ONO 1032,9 28 0 0,0
20.03.2019 02:00:00 -3,2 -4,9 -6,9 7,0 8,8 0 0 9 5 N 1032,6 32 0 0,0
20.03.2019 01:00:00 -2,5 -6,0 -5,9 7,2 8,9 3 1 7 4 W 1032,6 34 0 0,0
20.03.2019 00:00:00 -2,4 -4,4 -6,2 7,5 8,9 0 0 8 4 N 1032,3 40 0 0,0
19.03.2019 23:00:00 -0,6 -4,3 -4,5 7,7 8,8 3 2 7 4 NNW 1031,5 45 0 0,0
19.03.2019 22:00:00 0,8 -4,1 -3,8 8,0 8,9 2 1 8 4 ZZO 1030,9 51 0 0,0
19.03.2019 21:00:00 3,0 -3,8 -4,1 8,1 8,9 0 0 6 3 N 1029,7 60 0 0,0
19.03.2019 20:00:00 4,5 -3,5 -3,2 8,3 8,9 4 2 17 9 ZO 1029,2 60 0 0,0
19.03.2019 19:00:00 5,4 -3,2 1,8 8,3 8,9 10 5 27 15 N 1028,5 60 22 0,0
19.03.2019 18:00:00 8,2 -1,4 7,5 8,3 8,9 17 9 33 18 N 1027,3 57 20 0,0
19.03.2019 17:00:00 9,0 -1,4 9,4 8,2 8,9 18 10 33 18 N 1026,6 57 6 0,0
19.03.2019 16:00:00 9,3 -1,7 9,8 8,0 8,9 17 9 32 18 N 1026,4 58 6 0,0
19.03.2019 15:00:00 8,8 -0,8 9,0 7,9 8,9 18 10 33 18 N 1026,4 52 3 0,0
19.03.2019 14:00:00 8,2 -0,3 8,1 7,7 8,9 17 9 35 19 NNW 1026,6 60 2 0,0
19.03.2019 13:00:00 8,0 1,4 8,2 7,5 8,9 13 7 26 14 N 1027,0 45 0 0,0
19.03.2019 12:00:00 6,9 2,2 7,8 7,3 8,9 14 7 23 13 NNW 1027,4 38 13 0,0
19.03.2019 11:00:00 6,4 2,5 7,0 7,2 8,9 11 6 27 15 N 1027,2 39 18 0,0
19.03.2019 10:00:00 5,0 2,5 5,7 7,2 8,9 13 7 28 15 NNW 1027,4 36 0 0,0
19.03.2019 09:00:00 4,3 2,5 4,4 7,2 8,9 13 7 23 12 N 1027,1 20 0 0,0
19.03.2019 08:00:00 3,5 2,2 1,7 7,3 8,9 6 4 16 8 N 1026,7 19 0 0,0
19.03.2019 07:00:00 2,5 1,3 0,8 7,4 8,9 4 2 12 7 NO 1026,3 26 0 0,0
19.03.2019 06:00:00 3,1 1,8 1,6 7,5 8,9 9 5 16 8 N 1025,8 35 0 0,0
19.03.2019 05:00:00 2,9 1,7 1,9 7,7 8,9 9 5 16 9 N 1025,5 32 0 0,0
19.03.2019 04:00:00 2,5 1,3 0,5 7,8 8,9 5 3 9 5 NW 1025,3 27 0 0,0
19.03.2019 03:00:00 2,0 1,0 -0,5 8,0 8,9 3 2 9 5 ZO 1025,4 16 0 0,0
19.03.2019 02:00:00 2,4 1,1 0,1 8,1 8,9 2 1 12 7 ONO 1025,5 32 0 0,0
19.03.2019 01:00:00 3,6 1,6 2,7 8,3 8,9 8 4 11 6 N 1025,3 38 0 0,0
19.03.2019 00:00:00 3,3 1,5 1,6 8,5 8,9 5 3 9 5 WNW 1025,7 31 0 0,0
18.03.2019 23:00:00 4,2 1,6 2,1 8,6 8,9 6 3 13 7 WNW 1025,3 28 0 0,0
18.03.2019 22:00:00 3,7 1,7 0,9 8,8 8,9 6 3 10 5 ONO 1025,6 31 0 0,0
18.03.2019 21:00:00 4,4 2,3 2,5 8,9 8,9 3 1 6 4 WZW 1025,3 59 0 0,0
18.03.2019 20:00:00 4,1 1,5 1,9 9,0 8,9 5 3 16 9 ZO 1025,0 59 0 0,0
18.03.2019 19:00:00 5,9 1,6 5,4 9,0 8,9 11 6 21 11 WNW 1024,5 60 2 0,0
18.03.2019 18:00:00 7,3 1,6 7,0 8,9 8,9 10 5 23 12 NNW 1023,8 60 22 0,0
18.03.2019 17:00:00 7,4 2,7 7,1 8,8 8,9 15 8 49 27 NNO 1023,4 15 34 0,2
18.03.2019 16:00:00 7,8 2,0 7,8 8,6 8,9 19 10 33 18 N 1023,2 31 24 0,2
18.03.2019 15:00:00 9,0 1,9 10,2 8,3 8,8 17 9 33 18 N 1023,1 60 28 0,0
18.03.2019 14:00:00 7,3 3,3 5,5 8,1 8,9 16 8 32 17 NNO 1023,9 35 7 0,8
18.03.2019 13:00:00 6,5 1,6 8,2 7,9 8,9 11 6 27 14 N 1024,5 20 10 0,0
18.03.2019 12:00:00 5,6 3,1 5,9 7,8 8,9 13 7 31 17 NNW 1024,9 59 0 0,2
18.03.2019 11:00:00 6,1 2,4 6,4 7,7 8,9 11 6 22 12 NNW 1024,6 42 0 0,0
18.03.2019 10:00:00 5,7 0,0 8,4 7,6 8,9 8 5 20 11 N 1024,1 58 25 0,0
18.03.2019 09:00:00 5,0 -0,2 4,4 7,7 8,8 6 4 11 6 NNO 1024,0 60 8 0,0
18.03.2019 08:00:00 3,9 0,2 2,8 7,7 8,8 9 5 14 8 N 1023,5 60 0 0,0
18.03.2019 07:00:00 3,6 0,1 2,7 7,8 8,8 10 5 16 8 N 1023,1 60 0 0,0
18.03.2019 06:00:00 3,8 -0,4 3,0 7,9 8,8 9 5 19 10 NNW 1022,8 60 0 0,0
18.03.2019 05:00:00 3,9 0,2 3,4 8,0 8,8 8 5 25 14 N 1022,3 60 0 0,0
18.03.2019 04:00:00 4,2 0,0 3,9 8,2 8,8 13 7 29 16 NW 1021,6 60 0 0,0
18.03.2019 03:00:00 4,4 -0,2 2,5 8,4 8,8 17 9 36 20 NNW 1021,7 60 0 0,0
18.03.2019 02:00:00 3,7 -0,7 -0,4 8,6 8,8 8 4 13 7 ZZW 1021,2 60 0 0,0
18.03.2019 01:00:00 1,4 -1,3 -1,0 8,9 8,8 4 2 8 4 O 1022,0 51 0 0,0
18.03.2019 00:00:00 0,6 -2,0 -2,0 9,2 8,8 5 3 11 6 OZO 1022,3 60 0 0,0
17.03.2019 23:00:00 2,7 -1,7 -1,0 9,5 8,8 4 2 14 7 ZZO 1021,9 60 0 0,0
17.03.2019 22:00:00 3,8 -2,0 -0,8 9,7 8,8 3 2 24 13 NNW 1021,3 60 0 0,0
17.03.2019 21:00:00 6,1 -1,3 2,9 9,9 8,8 15 8 30 16 NW 1020,5 60 0 0,0
17.03.2019 20:00:00 5,3 0,1 1,3 10,1 8,8 6 4 10 5 NO 1019,6 60 0 0,0
17.03.2019 19:00:00 6,2 0,7 2,9 10,1 8,8 7 4 12 6 NNO 1018,7 60 7 0,0
17.03.2019 18:00:00 7,7 2,6 7,5 10,1 8,8 5 3 45 25 WNW 1017,6 60 3 0,0
17.03.2019 17:00:00 10,2 3,5 10,0 10,1 8,8 10 5 30 16 N 1016,4 60 46 0,0
17.03.2019 16:00:00 7,8 3,6 6,8 10,0 8,8 19 10 40 22 N 1016,6 60 5 0,0
17.03.2019 15:00:00 7,1 4,9 6,9 9,8 8,8 22 12 55 30 N 1016,0 50 0 1,6
17.03.2019 14:00:00 14,1 4,7 13,9 9,4 8,7 18 10 41 22 W 1012,6 19 10 0,0
17.03.2019 13:00:00 16,3 5,0 17,3 9,0 8,7 22 12 48 26 ZW 1012,1 54 55 0,0
17.03.2019 12:00:00 15,2 3,6 17,4 8,7 8,7 26 14 48 26 WZW 1013,0 60 60 0,0
17.03.2019 11:00:00 15,3 1,4 18,7 8,5 8,7 8 4 24 13 ZZW 1012,6 60 60 0,0
17.03.2019 10:00:00 13,9 -0,9 12,2 8,5 8,7 8 4 19 10 N 1012,4 54 51 0,0
17.03.2019 09:00:00 10,9 -1,2 9,8 8,6 8,7 5 3 27 14 N 1011,6 60 7 0,0
17.03.2019 08:00:00 7,9 0,4 4,1 8,8 8,7 11 6 20 11 Z 1011,3 59 34 0,0
17.03.2019 07:00:00 9,3 -4,3 -0,7 9,0 8,7 12 6 23 12 ZZW 1010,6 60 0 0,0
17.03.2019 06:00:00 4,0 -3,3 -1,5 9,2 8,7 6 3 8 4 ZZO 1011,9 60 0 0,0
17.03.2019 05:00:00 5,2 -4,1 0,7 9,5 8,7 2 1 13 7 WZW 1011,8 60 0 0,0
17.03.2019 04:00:00 10,8 -5,3 7,5 9,7 8,7 8 4 25 13 WZW 1011,1 60 0 0,0
17.03.2019 03:00:00 13,8 -5,4 11,0 9,9 8,6 14 7 39 21 ZW 1011,4 60 0 0,0
17.03.2019 02:00:00 13,0 -3,8 3,2 10,2 8,6 22 12 32 17 ZZW 1012,2 60 0 0,0
17.03.2019 01:00:00 5,9 0,4 0,2 10,5 8,7 16 9 21 12 Z 1014,1 60 0 0,0
17.03.2019 00:00:00 6,1 0,8 -0,2 10,8 8,6 8 5 15 8 Z 1014,5 60 0 0,0
16.03.2019 23:00:00 7,3 2,0 2,0 11,1 8,6 2 1 11 6 OZO 1014,2 60 0 0,0
16.03.2019 22:00:00 8,2 1,6 2,9 11,3 8,6 8 5 16 8 ZZO 1014,0 60 0 0,0
16.03.2019 21:00:00 9,7 3,6 5,3 11,5 8,6 11 6 27 15 Z 1014,0 60 0 0,0
16.03.2019 20:00:00 12,0 5,8 9,3 11,6 8,6 19 11 26 14 Z 1013,7 60 0 0,0
16.03.2019 19:00:00 13,6 5,7 11,3 11,5 8,6 16 9 25 13 Z 1013,7 19 22 0,0
16.03.2019 18:00:00 16,8 5,7 15,1 11,3 8,6 14 8 30 16 Z 1013,7 60 39 0,0
16.03.2019 17:00:00 21,1 1,9 24,2 10,9 8,6 18 10 32 17 Z 1013,5 60 60 0,0
16.03.2019 16:00:00 21,4 3,6 25,6 10,4 8,6 14 7 25 14 Z 1014,2 60 60 0,0
16.03.2019 15:00:00 20,0 3,6 24,0 9,8 8,6 15 8 29 15 Z 1015,5 60 60 0,0
16.03.2019 14:00:00 18,5 4,6 22,9 9,2 8,6 14 7 25 13 ZO 1016,9 60 60 0,0
16.03.2019 13:00:00 16,6 5,8 20,7 8,6 8,6 10 5 23 12 ZZO 1018,4 37 60 0,0
16.03.2019 12:00:00 14,7 5,5 19,9 8,2 8,6 8 4 20 11 ZO 1019,6 44 60 0,0
16.03.2019 11:00:00 13,3 5,7 17,9 8,0 8,6 9 5 20 11 ZZW 1020,6 58 60 0,0
16.03.2019 10:00:00 11,8 5,6 14,9 7,9 8,6 9 5 16 9 Z 1021,6 60 60 0,0
16.03.2019 09:00:00 9,5 5,7 6,7 8,1 8,6 11 6 15 8 Z 1022,6 46 60 0,0
16.03.2019 08:00:00 3,7 3,4 -1,4 8,3 8,6 3 2 8 4 Z 1023,8 15 28 0,0
16.03.2019 07:00:00 0,8 0,2 -1,5 8,5 8,6 5 3 9 5 ZZW 1024,7 3,2 0 0,0
16.03.2019 06:00:00 4,3 3,9 0,2 8,7 8,6 4 2 11 6 Z 1024,0 14 0 0,0
16.03.2019 05:00:00 5,1 3,8 1,7 8,8 8,5 7 4 10 5 Z 1023,9 20 0 0,0
16.03.2019 04:00:00 6,8 5,6 5,5 8,9 8,6 7 4 10 5 Z 1023,7 49 0 0,0
16.03.2019 03:00:00 7,1 5,7 5,9 8,9 8,6 8 4 10 5 Z 1024,3 60 0 0,0
16.03.2019 02:00:00 7,9 6,8 6,7 9,0 8,6 9 5 11 6 Z 1024,6 60 0 0,0
16.03.2019 01:00:00 8,6 7,4 7,5 9,1 8,6 7 4 10 5 ZZW 1025,0 60 0 0,0
16.03.2019 00:00:00 8,5 7,3 7,7 9,1 8,6 6 3 9 5 ZZO 1025,5 60 0 0,2
15.03.2019 23:00:00 8,9 7,2 8,2 9,2 8,6 6 4 12 7 NNO 1025,4 60 0 0,0
15.03.2019 22:00:00 9,7 6,4 8,3 9,3 8,6 5 3 10 5 OZO 1025,1 60 0 0,0
15.03.2019 21:00:00 10,0 6,2 8,3 9,3 8,6 4 2 7 4 OZO 1024,7 60 0 0,0
15.03.2019 20:00:00 10,7 5,9 9,9 9,4 8,6 5 3 23 12 NW 1024,3 60 0 0,0
15.03.2019 19:00:00 11,4 5,5 10,9 9,4 8,5 11 6 28 15 NNW 1023,8 60 0 0,0
15.03.2019 18:00:00 11,1 6,2 11,0 9,4 8,6 13 7 49 26 N 1023,1 60 0 0,0
15.03.2019 17:00:00 12,7 5,4 12,4 9,3 8,6 16 9 31 17 NNW 1022,4 60 0 0,0
15.03.2019 16:00:00 13,2 5,8 13,0 9,1 8,6 16 9 34 18 NNW 1022,1 60 0 0,0
15.03.2019 15:00:00 14,0 5,9 13,6 8,9 8,6 20 11 41 22 NW 1021,4 60 4 0,0
15.03.2019 14:00:00 12,6 8,1 13,5 8,7 8,6 19 10 43 23 N 1021,8 20 9 0,0
15.03.2019 13:00:00 14,0 6,6 13,9 8,4 8,6 16 9 36 19 NNW 1022,2 60 0 0,0

tt = temperatuur
td = dauwpunt
tt 5cm = temperatuur 5cm
tt -20cm = temperatuur -20cm
tt -100cm = temperatuur -100cm
ff = windsnelheid
fx = windstoten
dd = windrichting
ppp = luchtdruk
vv = zicht
sd = Zonneschijnduur
rr = neerslag

Weerstations in de omgeving